| time (UTC) | temp F | wind direction | speed MPH | gust MPH | rain 1hr in | rain 24hr in | rain mn in | humidity % | barometer mb |
| 20260509053141 | 51 | 236 | 1.0 | 6.0 | 0.00 | 0.00 | 0.00 | 35 | |
| 20260509052641 | 51 | 219 | 3.0 | 6.0 | 0.00 | 0.00 | 0.00 | 35 | |
| 20260509052141 | 51 | 246 | 4.0 | 7.0 | 0.00 | 0.00 | 0.00 | 35 | |
| 20260509051641 | 51 | 236 | 6.0 | 6.0 | 0.00 | 0.00 | 0.00 | 36 | |
| 20260509051141 | 51 | 192 | 1.0 | 6.0 | 0.00 | 0.00 | 0.00 | 37 | |
| 20260509050641 | 51 | 220 | 1.0 | 7.0 | 0.00 | 0.00 | 0.00 | 38 | |
| 20260509050141 | 51 | 163 | 1.0 | 6.0 | 0.00 | 0.00 | 0.00 | 37 | |
| 20260509045641 | 51 | 210 | 2.0 | 4.0 | 0.00 | 0.00 | 0.00 | 38 | |
| 20260509045141 | 51 | 227 | 3.0 | 5.0 | 0.00 | 0.00 | 0.00 | 37 | |
| 20260509044641 | 51 | 222 | 2.0 | 5.0 | 0.00 | 0.00 | 0.00 | 38 | |
| 20260509044141 | 50 | 233 | 3.0 | 5.0 | 0.00 | 0.00 | 0.00 | 37 | |
| 20260509043641 | 50 | 230 | 4.0 | 4.0 | 0.00 | 0.00 | 0.00 | 39 | |
| 20260509043141 | 51 | 156 | 0.0 | 1.0 | 0.00 | 0.00 | 0.00 | 39 | |
| 20260509042641 | 51 | 244 | 1.0 | 4.0 | 0.00 | 0.00 | 0.00 | 39 | |
| 20260509042141 | 50 | 196 | 0.0 | 0.0 | 0.00 | 0.00 | 0.00 | 38 | |
| 20260509041641 | 51 | 196 | 0.0 | 0.0 | 0.00 | 0.00 | 0.00 | 37 | |
| 20260509041141 | 51 | 196 | 0.0 | 3.0 | 0.00 | 0.00 | 0.00 | 39 | |
| 20260509040641 | 50 | 191 | 0.0 | 4.0 | 0.00 | 0.00 | 0.00 | 38 | |
| 20260509040141 | 50 | 210 | 4.0 | 4.0 | 0.00 | 0.00 | 0.00 | 39 | |
| 20260509035641 | 50 | 240 | 3.0 | 4.0 | 0.00 | 0.00 | 0.00 | 39 | |
| 20260509035141 | 50 | 222 | 0.0 | 0.0 | 0.00 | 0.00 | 0.00 | 41 | |
| 20260509034641 | 50 | 222 | 0.0 | 0.0 | 0.00 | 0.00 | 0.00 | 40 | |
| 20260509034141 | 51 | 222 | 0.0 | 0.0 | 0.00 | 0.00 | 0.00 | 39 | |
| 20260509033642 | 51 | 222 | 0.0 | 0.0 | 0.00 | 0.00 | 0.00 | 38 | |
| 20260509033141 | 51 | 222 | 0.0 | 0.0 | 0.00 | 0.00 | 0.00 | 38 | |
| 20260509032641 | 51 | 222 | 0.0 | 0.0 | 0.00 | 0.00 | 0.00 | 38 | |
| 20260509032141 | 52 | 222 | 0.0 | 2.0 | 0.00 | 0.00 | 0.00 | 38 | |
| 20260509031641 | 52 | 189 | 0.0 | 1.0 | 0.00 | 0.00 | 0.00 | 38 | |
| 20260509031141 | 52 | 219 | 0.0 | 3.0 | 0.00 | 0.00 | 0.00 | 37 | |
| 20260509030641 | 52 | 213 | 3.0 | 4.0 | 0.00 | 0.00 | 0.00 | 36 | |
| 20260509030141 | 52 | 227 | 0.0 | 3.0 | 0.00 | 0.00 | 0.00 | 37 | |
| 20260509025641 | 52 | 236 | 2.0 | 3.0 | 0.00 | 0.00 | 0.00 | 38 | |
| 20260509025141 | 52 | 198 | 0.0 | 0.0 | 0.00 | 0.00 | 0.00 | 38 | |
| 20260509024641 | 52 | 198 | 0.0 | 0.0 | 0.00 | 0.00 | 0.00 | 38 | |
| 20260509024141 | 52 | 198 | 0.0 | 0.0 | 0.00 | 0.00 | 0.00 | 36 | |
| 20260509023641 | 53 | 198 | 0.0 | 0.0 | 0.00 | 0.00 | 0.00 | 37 | |
| 20260509023141 | 53 | 198 | 0.0 | 0.0 | 0.00 | 0.00 | 0.00 | 37 | |
| 20260509022641 | 53 | 198 | 0.0 | 0.0 | 0.00 | 0.00 | 0.00 | 36 | |
| 20260509022141 | 53 | 198 | 0.0 | 0.0 | 0.00 | 0.00 | 0.00 | 37 | |
| 20260509021641 | 53 | 198 | 0.0 | 2.0 | 0.00 | 0.00 | 0.00 | 37 | |
| 20260509021141 | 53 | 215 | 0.0 | 0.0 | 0.00 | 0.00 | 0.00 | 37 | |
| 20260509020641 | 53 | 215 | 0.0 | 0.0 | 0.00 | 0.00 | 0.00 | 36 | |
| 20260509020141 | 53 | 215 | 0.0 | 0.0 | 0.00 | 0.00 | 0.00 | 36 | |
| 20260509015641 | 53 | 215 | 0.0 | 0.0 | 0.00 | 0.00 | 0.00 | 37 | |
| 20260509015141 | 53 | 215 | 0.0 | 0.0 | 0.00 | 0.00 | 0.00 | 36 | |
| 20260509014641 | 54 | 215 | 0.0 | 0.0 | 0.00 | 0.00 | 0.00 | 36 | |
| 20260509014141 | 54 | 215 | 0.0 | 0.0 | 0.00 | 0.00 | 0.00 | 38 | |
| 20260509013641 | 54 | 215 | 0.0 | 2.0 | 0.00 | 0.00 | 0.00 | 36 | |
| 20260509013141 | 55 | 220 | 0.0 | 3.0 | 0.00 | 0.00 | 0.00 | 37 | |
| 20260509012641 | 56 | 234 | 2.0 | 3.0 | 0.00 | 0.00 | 0.00 | 32 | |
| 20260509012141 | 56 | 246 | 0.0 | 0.0 | 0.00 | 0.00 | 0.00 | 36 | |
| 20260509011641 | 56 | 217 | 0.0 | 2.0 | 0.00 | 0.00 | 0.00 | 31 | |
| 20260509011141 | 56 | 226 | 1.0 | 3.0 | 0.00 | 0.00 | 0.00 | 32 | |
| 20260509010641 | 57 | 257 | 0.0 | 0.0 | 0.00 | 0.00 | 0.00 | 30 | |
| 20260509010141 | 57 | 257 | 0.0 | 0.0 | 0.00 | 0.00 | 0.00 | 31 | |
| 20260509005641 | 58 | 257 | 0.0 | 0.0 | 0.00 | 0.00 | 0.00 | 30 | |
| 20260509005141 | 59 | 257 | 0.0 | 0.0 | 0.00 | 0.00 | 0.00 | 29 | |
| 20260509004641 | 59 | 257 | 0.0 | 0.0 | 0.00 | 0.00 | 0.00 | 27 | |
| 20260509004141 | 59 | 257 | 0.0 | 0.0 | 0.00 | 0.00 | 0.00 | 27 | |
| 20260509003641 | 59 | 257 | 0.0 | 0.0 | 0.00 | 0.00 | 0.00 | 27 | |
| 20260509003141 | 60 | 257 | 0.0 | 0.0 | 0.00 | 0.00 | 0.00 | 27 | |
| 20260509002641 | 60 | 257 | 0.0 | 2.0 | 0.00 | 0.00 | 0.00 | 27 | |
| 20260509002141 | 60 | 285 | 1.0 | 6.0 | 0.00 | 0.00 | 0.00 | 26 | |
| 20260509001641 | 60 | 270 | 6.0 | 7.0 | 0.00 | 0.00 | 0.00 | 26 | |
| 20260509001141 | 60 | 322 | 1.0 | 6.0 | 0.00 | 0.00 | 0.00 | 25 | |
| 20260509000641 | 61 | 260 | 3.0 | 5.0 | 0.00 | 0.00 | 0.00 | 25 | |
| 20260509000141 | 61 | 267 | 1.0 | 6.0 | 0.00 | 0.00 | 0.00 | 25 | |
| 20260508235641 | 60 | 279 | 2.0 | 7.0 | 0.00 | 0.00 | 0.00 | 24 | |
| 20260508235141 | 61 | 285 | 2.0 | 6.0 | 0.00 | 0.00 | 0.00 | 25 | |
| 20260508234641 | 61 | 270 | 3.0 | 8.0 | 0.00 | 0.00 | 0.00 | 25 | |
| 20260508234142 | 60 | 281 | 4.0 | 11.0 | 0.00 | 0.00 | 0.00 | 24 | |
| 20260508233642 | 61 | 255 | 8.0 | 12.0 | 0.00 | 0.00 | 0.00 | 25 | |
| 20260508233142 | 61 | 248 | 6.0 | 10.0 | 0.00 | 0.00 | 0.00 | 24 | |
| 20260508231642 | 61 | 253 | 7.0 | 10.0 | 0.00 | 0.00 | 0.00 | 25 | |
| 20260508231142 | 62 | 323 | 5.0 | 9.0 | 0.00 | 0.00 | 0.00 | 24 | |
| 20260508230641 | 62 | 262 | 6.0 | 9.0 | 0.00 | 0.00 | 0.00 | 24 | |
| 20260508230142 | 61 | 279 | 1.0 | 8.0 | 0.00 | 0.00 | 0.00 | 24 | |
| 20260508225642 | 61 | 281 | 7.0 | 11.0 | 0.00 | 0.00 | 0.00 | 26 | |
| 20260508225142 | 61 | 270 | 5.0 | 10.0 | 0.00 | 0.00 | 0.00 | 25 | |
| 20260508224642 | 61 | 255 | 8.0 | 11.0 | 0.00 | 0.00 | 0.00 | 24 | |
| 20260508224142 | 62 | 282 | 6.0 | 9.0 | 0.00 | 0.00 | 0.00 | 25 | |
| 20260508223642 | 61 | 264 | 9.0 | 12.0 | 0.00 | 0.00 | 0.00 | 24 | |
| 20260508223142 | 62 | 337 | 2.0 | 10.0 | 0.00 | 0.00 | 0.00 | 25 | |
| 20260508222642 | 62 | 281 | 9.0 | 12.0 | 0.00 | 0.00 | 0.00 | 23 | |
| 20260508222142 | 62 | 299 | 7.0 | 11.0 | 0.00 | 0.00 | 0.00 | 23 | |
| 20260508221642 | 62 | 312 | 4.0 | 8.0 | 0.00 | 0.00 | 0.00 | 24 | |
| 20260508221142 | 62 | 295 | 3.0 | 9.0 | 0.00 | 0.00 | 0.00 | 23 | |
| 20260508220642 | 62 | 254 | 8.0 | 13.0 | 0.00 | 0.00 | 0.00 | 24 | |
| 20260508220142 | 62 | 257 | 0.0 | 10.0 | 0.00 | 0.00 | 0.00 | 24 | |
| 20260508215642 | 62 | 258 | 5.0 | 6.0 | 0.00 | 0.00 | 0.00 | 24 | |
| 20260508215142 | 62 | 279 | 5.0 | 16.0 | 0.00 | 0.00 | 0.00 | 24 | |
| 20260508214642 | 62 | 302 | 8.0 | 13.0 | 0.00 | 0.00 | 0.00 | 23 | |
| 20260508214142 | 62 | 293 | 7.0 | 11.0 | 0.00 | 0.00 | 0.00 | 23 | |
| 20260508213642 | 62 | 246 | 3.0 | 10.0 | 0.00 | 0.00 | 0.00 | 25 | |
| 20260508213142 | 62 | 281 | 8.0 | 13.0 | 0.00 | 0.00 | 0.00 | 22 | |
| 20260508212642 | 62 | 261 | 2.0 | 8.0 | 0.00 | 0.00 | 0.00 | 23 | |
| 20260508212142 | 61 | 288 | 4.0 | 13.0 | 0.00 | 0.00 | 0.00 | 23 | |
| 20260508211642 | 62 | 313 | 9.0 | 13.0 | 0.00 | 0.00 | 0.00 | 22 | |
| 20260508211142 | 62 | 302 | 6.0 | 13.0 | 0.00 | 0.00 | 0.00 | 24 | |
| 20260508210642 | 62 | 337 | 3.0 | 9.0 | 0.00 | 0.00 | 0.00 | 22 | |
| 20260508210142 | 62 | 331 | 4.0 | 8.0 | 0.00 | 0.00 | 0.00 | 22 | |
| 20260508205642 | 62 | 279 | 5.0 | 13.0 | 0.00 | 0.00 | 0.00 | 21 | |
| 20260508205142 | 62 | 272 | 12.0 | 14.0 | 0.00 | 0.00 | 0.00 | 21 | |
| 20260508204642 | 62 | 52 | 2.0 | 9.0 | 0.00 | 0.00 | 0.00 | 23 | |
| 20260508204142 | 62 | 323 | 7.0 | 13.0 | 0.00 | 0.00 | 0.00 | 26 | |
| 20260508203642 | 62 | 319 | 11.0 | 15.0 | 0.00 | 0.00 | 0.00 | 23 | |
| 20260508203142 | 62 | 303 | 10.0 | 10.0 | 0.00 | 0.00 | 0.00 | 25 | |
| 20260508202642 | 62 | 313 | 0.0 | 11.0 | 0.00 | 0.00 | 0.00 | 22 | |
| 20260508202142 | 61 | 241 | 8.0 | 13.0 | 0.00 | 0.00 | 0.00 | 23 | |
| 20260508201642 | 61 | 255 | 10.0 | 14.0 | 0.00 | 0.00 | 0.00 | 23 | |
| 20260508201142 | 61 | 30 | 5.0 | 12.0 | 0.00 | 0.00 | 0.00 | 24 | |
| 20260508200642 | 61 | 351 | 9.0 | 13.0 | 0.00 | 0.00 | 0.00 | 23 | |
| 20260508200142 | 61 | 340 | 7.0 | 15.0 | 0.00 | 0.00 | 0.00 | 25 | |
| 20260508195642 | 61 | 312 | 2.0 | 8.0 | 0.00 | 0.00 | 0.00 | 25 | |
| 20260508195142 | 61 | 334 | 6.0 | 12.0 | 0.00 | 0.00 | 0.00 | 23 | |
| 20260508194642 | 61 | 254 | 11.0 | 12.0 | 0.00 | 0.00 | 0.00 | 24 | |
| 20260508194142 | 61 | 275 | 0.0 | 7.0 | 0.00 | 0.00 | 0.00 | 24 | |
| 20260508193642 | 61 | 285 | 5.0 | 11.0 | 0.00 | 0.00 | 0.00 | 27 | |
| 20260508193142 | 61 | 52 | 9.0 | 12.0 | 0.00 | 0.00 | 0.00 | 28 | |
| 20260508192642 | 61 | 277 | 6.0 | 17.0 | 0.00 | 0.00 | 0.00 | 24 | |
| 20260508192142 | 62 | 288 | 7.0 | 10.0 | 0.00 | 0.00 | 0.00 | 28 | |
| 20260508191642 | 61 | 306 | 5.0 | 9.0 | 0.00 | 0.00 | 0.00 | 24 | |
| 20260508191142 | 61 | 7 | 3.0 | 10.0 | 0.00 | 0.00 | 0.00 | 26 | |
| 20260508190642 | 61 | 37 | 2.0 | 11.0 | 0.00 | 0.00 | 0.00 | 26 | |
| 20260508190142 | 60 | 281 | 9.0 | 13.0 | 0.00 | 0.00 | 0.00 | 27 | |
| 20260508185642 | 60 | 279 | 9.0 | 15.0 | 0.00 | 0.00 | 0.00 | 27 | |
| 20260508185142 | 60 | 299 | 7.0 | 13.0 | 0.00 | 0.00 | 0.00 | 28 | |
| 20260508184642 | 60 | 355 | 7.0 | 9.0 | 0.00 | 0.00 | 0.00 | 29 | |
| 20260508184142 | 60 | 286 | 5.0 | 11.0 | 0.00 | 0.00 | 0.00 | 24 | |
| 20260508183642 | 60 | 261 | 5.0 | 10.0 | 0.00 | 0.00 | 0.00 | 28 | |
| 20260508183142 | 59 | 303 | 5.0 | 8.0 | 0.00 | 0.00 | 0.00 | 26 | |
| 20260508182642 | 60 | 289 | 7.0 | 10.0 | 0.00 | 0.00 | 0.00 | 27 | |
| 20260508182142 | 61 | 265 | 3.0 | 10.0 | 0.00 | 0.00 | 0.00 | 28 | |
| 20260508181642 | 61 | 315 | 5.0 | 8.0 | 0.00 | 0.00 | 0.00 | 28 | |
| 20260508181142 | 60 | 177 | 4.0 | 12.0 | 0.00 | 0.00 | 0.00 | 29 | |
| 20260508180642 | 60 | 258 | 6.0 | 7.0 | 0.00 | 0.00 | 0.00 | 26 | |
| 20260508180142 | 59 | 281 | 6.0 | 11.0 | 0.00 | 0.00 | 0.00 | 27 | |
| 20260508175642 | 60 | 248 | 5.0 | 11.0 | 0.00 | 0.00 | 0.00 | 28 | |
| 20260508175142 | 59 | 265 | 7.0 | 15.0 | 0.00 | 0.00 | 0.00 | 29 | |
| 20260508174642 | 60 | 286 | 1.0 | 8.0 | 0.00 | 0.00 | 0.00 | 29 | |
| 20260508174142 | 60 | 253 | 5.0 | 6.0 | 0.00 | 0.00 | 0.00 | 30 | |
| 20260508173642 | 59 | 223 | 1.0 | 8.0 | 0.00 | 0.00 | 0.00 | 31 | |
| 20260508173142 | 58 | 313 | 5.0 | 13.0 | 0.00 | 0.00 | 0.00 | 29 | |
| 20260508172642 | 58 | 358 | 6.0 | 12.0 | 0.00 | 0.00 | 0.00 | 29 | |
| 20260508172142 | 59 | 348 | 5.0 | 16.0 | 0.00 | 0.00 | 0.00 | 33 | |
| 20260508171642 | 59 | 248 | 5.0 | 10.0 | 0.00 | 0.00 | 0.00 | 28 | |
| 20260508171142 | 58 | 278 | 2.0 | 13.0 | 0.00 | 0.00 | 0.00 | 29 | |
| 20260508170642 | 59 | 306 | 4.0 | 15.0 | 0.00 | 0.00 | 0.00 | 30 | |
| 20260508170142 | 59 | 289 | 13.0 | 13.0 | 0.00 | 0.00 | 0.00 | 28 | |
| 20260508165642 | 59 | 306 | 2.0 | 10.0 | 0.00 | 0.00 | 0.00 | 29 | |
| 20260508165142 | 58 | 323 | 5.0 | 12.0 | 0.00 | 0.00 | 0.00 | 29 | |
| 20260508164642 | 58 | 274 | 1.0 | 16.0 | 0.00 | 0.00 | 0.00 | 31 | |
| 20260508164142 | 58 | 255 | 9.0 | 11.0 | 0.00 | 0.00 | 0.00 | 28 | |
| 20260508163642 | 58 | 281 | 6.0 | 9.0 | 0.00 | 0.00 | 0.00 | 29 | |
| 20260508163142 | 58 | 323 | 1.0 | 9.0 | 0.00 | 0.00 | 0.00 | 28 | |
| 20260508162642 | 58 | 286 | 3.0 | 11.0 | 0.00 | 0.00 | 0.00 | 30 | |
| 20260508161142 | 58 | 261 | 4.0 | 10.0 | 0.00 | 0.00 | 0.00 | 29 | |
| 20260508160642 | 58 | 261 | 8.0 | 8.0 | 0.00 | 0.00 | 0.00 | 32 | |
| 20260508160142 | 57 | 191 | 4.0 | 10.0 | 0.00 | 0.00 | 0.00 | 29 | |
| 20260508155642 | 57 | 23 | 2.0 | 8.0 | 0.00 | 0.00 | 0.00 | 26 | |
| 20260508155142 | 57 | 261 | 7.0 | 8.0 | 0.00 | 0.00 | 0.00 | 27 | |
| 20260508154642 | 57 | 284 | 2.0 | 15.0 | 0.00 | 0.00 | 0.00 | 28 | |
| 20260508154142 | 57 | 125 | 0.0 | 7.0 | 0.00 | 0.00 | 0.00 | 31 | |
| 20260508153642 | 57 | 222 | 5.0 | 11.0 | 0.00 | 0.00 | 0.00 | 29 | |
| 20260508153142 | 56 | 260 | 7.0 | 12.0 | 0.00 | 0.00 | 0.00 | 32 | |
| 20260508152642 | 56 | 247 | 6.0 | 14.0 | 0.00 | 0.00 | 0.00 | 31 | |
| 20260508152142 | 56 | 257 | 8.0 | 17.0 | 0.00 | 0.00 | 0.00 | 29 | |
| 20260508151642 | 56 | 255 | 9.0 | 10.0 | 0.00 | 0.00 | 0.00 | 31 | |
| 20260508151142 | 56 | 241 | 7.0 | 9.0 | 0.00 | 0.00 | 0.00 | 35 | |
| 20260508150642 | 55 | 315 | 5.0 | 11.0 | 0.00 | 0.00 | 0.00 | 27 | |
| 20260508150142 | 56 | 247 | 7.0 | 11.0 | 0.00 | 0.00 | 0.00 | 33 | |
| 20260508145642 | 56 | 285 | 4.0 | 9.0 | 0.00 | 0.00 | 0.00 | 31 |